Regional Weather Roundup
Issued by NWS Little Rock, AR

Home | Current Version | Previous Version | Graphics & Text | Print | Product List | Glossary On
Versions: 1 2 3 4 5 6 7 8 9 10 11 12 13 14 15 16 17 18 19 20 21 22 23 24 25 26 27 28 29 30 31 32 33 34 35 36 37 38 39 40 41 42 43 44 45 46 47 48 49
000
ASUS44 KLZK 290105
RWRLZK

WEATHER ROUNDUP FOR ARKANSAS
NATIONAL WEATHER SERVICE LITTLE ROCK AR
800 PM CDT THU MAY 28 2015

NOTE: "FAIR" INDICATES FEW OR NO CLOUDS BELOW 12,000 FEET WITH NO
SIGNIFICANT WEATHER AND/OR OBSTRUCTIONS TO VISIBILITY.

ARZ001-003-010-029-290200-
NORTHWEST ARKANSAS

CITY           SKY/WX    TMP DP  RH WIND       PRES   REMARKS
FAYETTEVILLE   PTCLDY    70  65  84 SE6       29.99F
FORT SMITH     PTCLDY    74  67  78 E6        29.97F
HARRISON       MOCLDY    69  63  81 SE7       30.02F
BENTONVILLE    PTCLDY    73  63  68 S3        29.98F
ROGERS         CLOUDY    74  64  71 S7        29.99F
SILOAM SPGS    PTCLDY    72  63  73 S7        29.99F
HIGHFILL       PTCLDY    73  66  78 S7        29.98F
SPRINGDALE     PTCLDY    73  66  78 S9        30.01F
$$

ARZ004-005-016-290200-
NORTH CENTRAL ARKANSAS

CITY           SKY/WX    TMP DP  RH WIND       PRES   REMARKS
BATESVILLE     CLOUDY    72  66  83 CALM      30.03S
FLIPPIN        CLOUDY    70  64  83 S5        30.01S
MTN HOME       CLOUDY    69  64  84 S7        30.01S
$$

ARZ040-041-290200-
WEST CENTRAL ARKANSAS

CITY           SKY/WX    TMP DP  RH WIND       PRES   REMARKS
MENA           MOCLDY    72  70  94 NE3       30.01F
MOUNT IDA      CLOUDY    70  67  90 CALM      30.01S
$$

ARZ009-017-025-026-028-290200-
NORTHEAST ARKANSAS

CITY           SKY/WX    TMP DP  RH WIND       PRES   REMARKS
CORNING        FAIR      75  70  83 SE6       30.04R
JONESBORO      MOCLDY    76  68  76 CALM      30.03S
NEWPORT        CLOUDY    78  70  76 S6        30.04R
WALNUT RIDGE   CLOUDY    75  68  78 SE6       30.03R
BLYTHEVILLE    CLEAR     76  71  85 SE5       30.06S
$$

ARZ022-023-033-042-044-290200-
CENTRAL ARKANSAS

CITY           SKY/WX    TMP DP  RH WIND       PRES   REMARKS
LITTLE ROCK    CLOUDY    72  66  81 S3        30.03S
N LITTLE ROCK  CLOUDY    71  67  86 S5        30.03S
JACKSONVILLE   CLOUDY    71  67  88 E2        30.03R
SEARCY         CLOUDY    70  69  97 CALM      30.04R
HOT SPRINGS    CLOUDY    69  66  90 SE3       30.04S
RUSSELLVILLE   MOCLDY    70  68  93 CALM      30.01F
CLINTON        FAIR      68  68 100 CALM      30.05S
$$

ARZ036-290200-
EAST ARKANSAS

CITY           SKY/WX    TMP DP  RH WIND       PRES   REMARKS
WEST MEMPHIS   CLEAR     76  69  79 SE7       30.04F
$$

ARZ050-053-066-070-073-290200-
SOUTHWEST ARKANSAS

CITY           SKY/WX    TMP DP  RH WIND       PRES   REMARKS
ARKADELPHIA    FAIR      71  71 100 CALM      30.04S
CAMDEN         CLOUDY    70  66  88 CALM      30.04F
TEXARKANA      MOCLDY    75  68  78 SE6       30.01S
EL DORADO      CLOUDY    71  69  93 E5        30.04F
DE QUEEN       MOCLDY    74  66  76 E24G36    29.97F
$$

ARZ056-057-069-290200-
SOUTHEAST ARKANSAS

CITY           SKY/WX    TMP DP  RH WIND       PRES   REMARKS
PINE BLUFF     MOCLDY    71  67  87 S6        30.04F
STUTTGART      CLOUDY    75  64  69 MISG      30.03F
MONTICELLO     CLOUDY    72  71  97 CALM      30.05S

$$




USA.gov is the U.S. government's official web portal to all federal, state and local government web resources and services.